Temp
18 18 18 18 18 18 19 19 19 19 20 19 19 19 18 18 19 17 16 17 18 17 15 10 8 9 8 7 7 7 8 9 9 8 7 8 9 9 10 9 9 10 10 9 9 10 11 11 11 11 10 8 5 0 -2 -1 1 4 8 8 5 6 8 9 11 12 10 5 4 5 5 6 6 5 4 4 3 3 3 3 2 2 3 4 3 2 4
18 18 18 18 18 19 19 19 19 20 20 20 20 20 18 17 17 16 16 18 19 19 17 13 10 9 8 9 9 7 7 9 9 9 9 9 9 11 11 9 9 9 7 8 10 10 11 11 10 9 10 7 1 -2 -2 -0 2 5 6 6 5 7 10 10 10 11 10 8 7 7 6 7 6 4 2 2 2 2 1 0 0 1 3 3 2 1 3
18 18 18 19 19 19 19 19 20 20 20 20 20 18 16 16 17 17 16 15 16 15 12 12 12 10 11 11 10 9 9 8 8 9 9 7 7 10 10 8 8 7 7 8 9 8 10 11 9 8 9 7 1 -2 -2 -1 2 3 2 1 3 7 10 10 9 9 9 9 9 9 9 8 6 4 2 1 1 1 1 1 1 1 2 2 1 1 3
19 19 19 19 19 19 20 20 20 20 20 20 20 16 16 19 19 19 17 14 12 10 7 10 13 12 13 14 10 10 12 10 6 7 9 7 6 8 8 7 8 9 8 10 11 9 8 9 10 9 9 8 4 -0 -2 -1 0 1 0 -1 2 6 8 9 9 9 8 9 9 9 9 7 6 5 2 1 0 -0 1 2 1 1 1 1 1 2 2
19 20 19 20 20 20 20 20 20 20 19 20 20 14 14 19 17 15 17 16 14 13 9 10 13 12 13 14 11 11 12 11 9 8 9 7 7 8 8 8 10 11 10 11 12 10 8 8 9 9 7 7 5 1 -1 0 -0 0 1 -1 2 8 9 8 7 7 8 9 8 8 7 6 6 5 3 1 0 -0 1 1 1 1 0 -0 2 2 1
20 20 20 20 20 20 20 20 20 20 20 20 20 15 13 16 14 10 12 16 16 15 12 10 10 11 11 10 9 11 12 12 12 10 8 7 7 10 11 9 9 9 8 10 12 11 10 10 9 8 6 6 7 5 4 3 1 1 2 1 3 8 9 6 6 6 6 7 7 7 6 5 5 4 3 2 0 -0 0 0 1 1 -0 -0 1 1 0
20 20 20 20 20 20 20 20 20 20 20 20 20 17 12 13 13 8 8 11 11 9 8 8 10 11 10 9 10 12 13 12 10 8 9 11 9 10 13 12 9 7 7 9 11 11 11 11 9 7 7 6 7 8 7 5 3 2 5 3 2 6 8 6 4 4 5 6 6 5 5 4 4 3 2 2 1 1 1 1 1 1 0 1 1 1 0
21 21 21 20 20 21 20 21 20 20 21 20 19 16 13 14 15 12 10 10 7 6 6 9 12 12 11 12 12 10 12 13 9 7 10 13 12 10 12 11 8 6 6 8 10 10 10 11 9 7 7 7 7 7 8 6 5 4 5 3 2 5 7 4 2 4 6 6 5 5 5 4 3 2 2 2 2 2 1 1 1 0 0 1 1 -0 0
22 22 22 21 21 21 21 21 21 21 21 21 17 13 12 13 13 13 15 13 8 8 8 9 14 16 13 13 12 10 12 12 10 9 8 10 12 11 10 10 7 5 6 8 9 8 7 8 7 6 6 7 6 6 6 5 6 6 4 2 3 5 5 3 2 5 7 7 5 5 4 2 1 2 2 1 1 1 1 1 1 0 -0 -0 -0 -1 -1
23 23 23 22 22 22 22 22 22 22 22 22 18 13 11 12 11 11 16 15 8 8 10 10 14 15 11 10 10 10 10 8 8 12 10 7 8 8 7 9 8 8 9 9 7 6 5 4 3 3 4 4 3 4 3 3 4 5 3 1 0 1 4 4 2 4 7 7 5 5 3 2 3 2 1 1 1 1 1 1 1 1 1 -0 -1 -1 -0
23 23 23 23 23 23 23 23 23 23 23 23 19 14 12 16 16 13 17 18 10 6 10 14 15 13 9 8 8 8 9 7 8 12 13 10 7 4 5 7 8 10 9 5 2 2 2 2 2 2 2 2 2 2 2 1 1 1 1 2 1 0 3 3 1 3 6 5 4 5 5 5 4 3 2 2 1 0 0 0 1 1 1 0 -0 -0 0
24 24 24 24 24 23 23 24 24 24 24 24 22 18 16 18 18 16 19 20 12 7 11 12 9 8 7 8 9 9 9 9 8 8 11 11 7 4 5 7 10 10 4 -0 -1 1 2 3 3 3 2 2 2 2 2 2 1 -1 -0 2 4 4 3 1 -1 1 4 3 3 5 6 5 3 2 2 2 1 1 1 0 1 1 1 0 -0 -0 -0
24 24 24 23 24 24 23 23 23 23 23 23 23 21 18 17 16 15 17 19 13 9 11 9 4 4 7 7 9 9 7 6 5 4 7 9 8 7 6 7 9 6 0 -1 1 3 4 5 5 5 5 4 4 4 2 1 1 0 0 1 4 5 3 1 1 2 3 3 2 3 5 5 3 2 2 2 1 1 -0 -1 0 1 0 -0 -1 -1 -1
23 23 23 23 23 23 23 22 23 22 22 23 23 21 19 18 17 15 16 18 13 5 6 10 8 7 8 8 9 9 7 6 6 6 6 7 8 9 7 5 4 1 -1 1 3 4 7 8 7 7 6 6 7 6 3 1 0 1 1 1 2 4 3 3 3 2 2 2 2 2 4 4 2 1 2 1 0 0 -1 -2 -1 0 1 -0 -1 -1 -1
23 23 23 23 22 23 22 22 22 22 21 23 23 21 19 18 18 17 15 15 14 7 6 10 12 10 10 8 8 10 11 11 10 9 7 5 6 8 4 1 1 -1 -0 3 5 6 8 10 10 11 9 8 9 8 6 4 2 1 0 0 2 3 3 4 4 1 0 1 1 2 3 3 3 2 2 2 1 1 0 -1 -2 0 1 -0 -1 -1 -2
23 23 22 22 22 22 22 21 21 21 21 22 23 21 19 18 18 17 14 13 15 14 9 6 6 7 9 7 6 9 12 12 11 12 11 9 9 7 2 -3 -2 -1 1 5 6 7 10 10 10 10 10 9 9 8 7 7 5 2 1 1 2 2 1 2 3 1 -0 0 1 1 2 3 2 1 2 2 1 1 0 -2 -2 0 0 -1 -1 -2 -2
22 22 22 22 22 21 21 21 21 21 21 22 22 21 19 17 17 18 15 12 13 11 5 1 3 7 10 10 8 8 9 9 9 11 13 12 10 8 4 -1 -1 0 3 6 7 8 10 10 8 9 9 7 7 8 8 7 6 5 3 3 2 1 -0 1 2 1 0 0 1 1 2 2 2 2 2 1 1 1 -1 -3 -2 -0 -0 -1 -1 -2 -3
22 22 22 22 22 21 21 21 21 21 21 21 22 21 19 17 18 18 15 12 12 9 2 -1 3 6 8 8 8 7 7 8 9 10 12 10 8 8 7 4 4 5 5 7 9 10 10 9 7 9 9 6 5 8 8 7 6 5 4 4 2 1 -1 -1 0 1 1 0 1 2 2 2 2 2 1 1 1 0 -2 -3 -2 -0 -1 -1 -2 -2 -3
21 22 22 22 21 21 21 21 21 21 21 22 22 20 17 16 17 17 15 11 11 9 3 -2 1 4 2 2 5 5 4 6 8 10 13 12 9 6 5 4 5 7 6 7 9 8 9 9 5 5 8 7 6 7 7 6 5 4 3 3 2 1 0 -0 -0 1 1 0 1 1 2 2 2 2 2 1 -1 -3 -3 -1 -1 -1 -1 -2 -2 -3 -3
21 21 21 21 21 20 21 21 20 21 21 21 22 19 16 16 17 17 16 11 6 5 2 -1 0 1 -0 1 5 6 6 7 8 10 13 12 7 5 8 9 8 7 8 9 9 7 7 9 6 4 7 7 6 6 6 4 3 3 2 2 2 1 1 1 0 -0 1 1 0 0 2 2 2 1 1 0 -1 -2 -1 -0 -1 -1 -2 -2 -3 -3 -3
21 20 20 20 20 20 20 20 20 21 20 20 23 20 15 15 16 16 17 14 8 6 5 1 0 0 -1 -1 1 2 4 7 7 8 10 9 5 7 12 12 9 8 9 9 9 7 7 7 5 4 6 6 5 6 5 4 3 2 1 1 1 0 1 2 0 -1 -0 1 0 1 2 3 2 1 -0 -0 -0 -0 -1 -1 -2 -2 -2 -3 -3 -3 -4
20 20 20 20 20 19 20 19 19 20 19 19 22 20 14 13 14 15 17 14 8 4 4 1 -0 -0 -1 -1 -1 -1 1 2 2 2 5 6 5 5 8 9 8 8 7 7 9 8 6 5 5 6 6 6 5 4 3 4 5 2 -0 1 2 1 2 2 1 -0 0 1 1 2 3 3 2 1 0 0 0 -0 -1 -2 -2 -3 -3 -3 -3 -4 -4
19 19 19 19 19 18 19 18 18 19 19 19 21 19 15 13 14 15 16 11 3 1 2 1 0 1 -0 -0 0 0 0 0 0 -1 1 4 7 6 5 7 7 5 4 5 7 8 7 6 6 6 6 6 5 4 2 3 4 2 1 3 3 1 1 1 0 0 1 1 2 2 2 2 1 1 1 0 -0 -1 -1 -2 -3 -3 -3 -3 -3 -4 -4
18 19 18 19 18 18 18 17 17 18 18 18 19 18 16 14 14 15 14 10 5 5 5 3 3 4 2 1 1 0 0 0 0 -0 -1 2 6 8 7 5 4 4 5 4 3 4 5 5 3 4 6 5 4 5 5 4 3 2 1 2 2 1 1 1 1 0 0 1 2 2 1 1 1 0 0 -0 -1 -1 -2 -2 -3 -3 -3 -3 -3 -4 -4
17 18 18 18 18 18 17 17 17 17 17 17 18 18 16 15 14 15 15 13 10 10 10 7 5 3 2 2 1 0 1 1 1 1 -0 -1 1 5 6 3 2 4 4 2 1 3 6 5 3 5 6 4 3 4 5 4 3 2 2 2 1 1 0 0 0 0 -0 1 2 1 1 1 -0 -0 -0 -1 -2 -1 -2 -2 -2 -3 -3 -3 -4 -4 -4
17 17 17 18 17 17 17 17 17 17 17 17 17 17 16 15 14 15 16 14 11 10 10 8 6 3 2 2 1 1 2 2 2 1 1 -0 -1 0 1 1 1 2 1 0 1 3 5 5 4 5 6 4 2 3 3 3 3 2 2 2 2 0 0 0 0 -0 -0 1 1 0 -1 -0 -0 -1 -1 -1 -2 -2 -3 -2 -2 -3 -3 -4 -4 -5 -5
16 16 16 17 17 17 16 16 16 16 16 17 17 17 16 15 14 15 15 14 14 13 12 9 6 4 3 2 2 2 2 3 3 3 1 1 -0 -1 -0 1 1 2 3 2 2 2 4 5 4 4 3 1 0 -0 0 1 2 1 1 2 1 0 0 0 -1 -1 -1 0 0 -1 -2 -2 -1 -1 -1 -2 -2 -2 -3 -3 -3 -4 -4 -4 -5 -5 -6
16 16 16 16 16 16 16 16 16 16 16 16 16 16 16 15 14 15 14 14 15 14 10 8 6 5 5 4 3 3 3 3 4 4 2 1 1 -0 -0 1 2 3 4 4 4 4 5 5 4 1 -1 0 1 0 -1 -1 1 1 1 2 1 0 1 0 -1 -1 -1 -0 -0 -1 -2 -2 -2 -2 -2 -2 -2 -3 -4 -4 -4 -4 -4 -5 -6 -6 -7
16 16 16 16 16 16 16 16 16 16 16 16 16 16 15 14 13 14 14 14 14 10 7 6 7 6 6 6 4 3 4 4 3 3 3 2 2 1 1 1 1 2 2 3 5 5 4 2 1 -0 -0 1 2 1 0 0 1 2 2 2 1 1 0 -0 -1 -1 -1 -1 -1 -2 -2 -3 -2 -2 -2 -2 -3 -3 -4 -4 -4 -4 -5 -5 -6 -7 -7
15 16 16 16 16 17 17 17 17 16 16 16 16 16 15 15 14 13 13 13 14 11 9 9 9 6 4 4 4 4 4 4 3 3 3 3 2 1 1 1 -0 -1 1 3 4 4 2 0 -1 -0 0 0 1 1 0 -0 0 2 2 1 1 0 0 -0 -1 -1 -2 -1 -1 -2 -3 -3 -2 -2 -2 -3 -3 -3 -4 -4 -4 -5 -6 -6 -6 -7 -7
15 15 15 15 16 16 16 17 17 17 17 16 16 15 15 15 14 13 12 13 14 12 9 8 8 6 5 5 5 4 4 4 4 4 3 3 2 1 1 1 1 0 3 4 3 1 1 1 1 1 0 -0 0 1 -0 -1 1 2 1 1 0 -0 -1 -1 -1 -1 -2 -2 -2 -2 -3 -3 -2 -3 -3 -3 -3 -4 -4 -4 -5 -5 -6 -7 -7 -7 -8
15 15 15 15 15 15 15 16 16 17 17 16 14 13 12 12 13 13 12 13 13 12 11 11 9 7 7 6 5 4 4 4 3 3 3 3 3 2 2 1 1 1 2 3 2 1 1 1 1 0 -1 -1 -0 -0 -1 -0 2 2 1 1 1 -0 -1 -1 -2 -2 -2 -2 -3 -4 -4 -3 -3 -4 -4 -4 -4 -4 -5 -5 -5 -6 -7 -7 -8 -8 -8
15 15 15 15 15 15 15 15 15 16 16 14 13 12 11 12 13 13 13 14 12 10 10 12 11 9 7 7 5 4 4 4 3 4 4 3 2 2 3 2 1 2 2 3 3 2 0 -0 1 1 -1 -1 -1 -1 -0 1 2 1 1 0 -0 -1 -1 -2 -2 -2 -2 -2 -3 -4 -4 -4 -4 -4 -4 -4 -4 -4 -5 -5 -6 -7 -7 -7 -8 -8 -8
15 15 15 15 15 15 15 15 15 15 15 13 13 12 11 12 13 13 13 14 12 9 8 9 10 10 8 7 7 5 4 5 5 4 4 3 1 2 4 3 2 3 3 2 2 2 0 -0 1 1 -0 -2 -2 -0 1 2 1 1 0 -0 -1 -1 -2 -2 -2 -2 -3 -3 -3 -4 -4 -4 -4 -4 -4 -4 -4 -5 -5 -6 -6 -7 -8 -8 -8 -8 -9
15 15 15 15 14 15 15 14 15 15 14 13 12 11 12 12 12 13 14 13 13 12 10 6 7 9 9 9 10 7 4 4 4 2 2 3 1 1 2 4 4 4 3 2 2 2 1 0 0 1 0 -1 -0 1 2 1 1 0 0 -0 -1 -2 -3 -3 -3 -3 -3 -3 -3 -4 -4 -4 -4 -5 -5 -5 -5 -5 -6 -6 -7 -7 -8 -9 -9 -9 -9
16 15 15 14 15 15 14 14 15 14 13 12 12 12 12 13 12 12 13 13 12 13 10 5 5 6 7 8 8 6 4 4 3 1 1 2 2 0 1 4 5 3 1 1 2 2 0 -1 0 1 0 -0 1 2 1 0 1 0 -0 -1 -1 -2 -3 -3 -3 -3 -3 -4 -4 -4 -4 -4 -5 -5 -5 -5 -5 -5 -6 -7 -7 -8 -9 -9 -9 -9 -10
16 15 15 15 15 14 14 13 13 12 12 12 12 12 13 13 12 13 12 11 9 8 7 7 6 4 2 4 5 4 4 5 3 2 2 3 2 1 1 3 4 2 1 2 2 0 -1 -1 -0 1 1 1 1 2 0 0 1 -0 -1 -1 -2 -3 -3 -3 -3 -4 -4 -4 -4 -4 -4 -5 -5 -5 -5 -6 -6 -6 -6 -7 -8 -8 -9 -10 -10 -10 -10
16 15 15 15 14 13 13 13 12 12 12 12 12 13 12 10 12 12 9 7 7 5 3 4 5 1 -0 3 4 4 4 3 2 3 3 2 2 2 2 2 2 2 2 3 0 -2 -1 -0 -2 -1 1 0 -0 0 0 -0 0 -0 -1 -1 -2 -3 -3 -3 -4 -4 -5 -5 -4 -4 -5 -6 -5 -6 -6 -6 -6 -7 -7 -7 -8 -9 -9 -10 -10 -11 -11
16 15 15 15 13 12 13 13 12 12 13 12 12 13 10 8 11 12 7 5 6 5 3 3 3 0 0 4 5 3 2 2 3 4 3 2 3 4 3 2 2 1 3 4 -0 -2 2 1 -3 -2 1 0 -1 0 1 -0 -1 -1 -1 -2 -2 -3 -3 -3 -4 -4 -5 -5 -5 -5 -5 -6 -6 -6 -7 -7 -7 -7 -8 -8 -8 -9 -10 -10 -11 -11 -12
15 15 14 13 12 12 13 13 13 13 13 12 12 12 10 8 9 9 7 7 8 5 2 2 1 -3 -2 2 3 1 1 2 2 2 2 2 2 2 2 3 2 1 4 4 -0 -2 2 2 -1 -1 2 1 -1 0 1 -0 -1 -1 -2 -2 -3 -3 -4 -4 -4 -4 -5 -5 -5 -5 -6 -6 -6 -7 -7 -7 -8 -8 -8 -9 -9 -10 -10 -11 -11 -12 -12
15 14 14 13 13 13 12 12 12 12 11 12 12 11 11 9 5 2 5 10 11 5 -0 -0 1 0 -1 -1 1 2 1 -1 -2 -2 0 1 1 1 2 3 1 1 5 3 -2 -2 1 2 0 1 2 1 -0 0 0 -0 -1 -1 -2 -3 -3 -3 -4 -4 -4 -5 -5 -5 -5 -6 -6 -6 -7 -7 -8 -8 -8 -9 -9 -10 -10 -11 -11 -12 -12 -12 -12
14 14 14 13 13 13 12 13 12 11 11 13 13 10 8 7 6 5 7 9 7 3 1 0 2 3 1 -1 -1 0 -0 -3 -3 -2 1 2 1 0 1 1 1 4 5 0 -3 -1 2 2 2 3 2 1 1 1 0 -0 -0 -1 -2 -2 -3 -4 -4 -4 -5 -5 -5 -6 -6 -6 -7 -7 -8 -8 -8 -9 -9 -10 -10 -11 -11 -11 -12 -12 -12 -12 -12
14 13 13 13 13 12 12 12 11 10 11 13 13 12 10 9 7 6 7 4 1 1 2 1 0 1 1 -1 -2 -1 -1 -2 -2 -1 0 0 -1 -1 1 2 3 3 1 -2 -2 2 3 3 3 3 2 1 1 0 -0 -0 -1 -2 -2 -3 -3 -4 -4 -5 -5 -5 -6 -6 -6 -7 -7 -8 -8 -8 -9 -9 -10 -11 -11 -11 -11 -12 -12 -12 -12 -12 -13
13 12 12 12 12 12 13 13 11 11 13 13 11 13 14 12 7 7 8 6 3 2 1 -1 -0 2 2 -1 -2 -1 -1 -2 -2 -1 -0 -1 -2 0 3 4 3 1 -1 -1 1 2 1 1 2 2 1 1 1 -0 -0 -0 -2 -2 -2 -3 -4 -4 -4 -5 -5 -5 -6 -6 -7 -7 -8 -8 -8 -9 -9 -10 -10 -11 -11 -12 -12 -12 -12 -12 -13 -13 -13
14 13 13 14 13 12 13 14 12 11 13 12 10 11 13 11 10 10 7 3 2 2 -0 -3 -2 1 1 -1 -2 -1 -2 -2 -0 1 -0 -1 0 2 3 2 0 -1 -0 1 2 2 2 2 2 1 1 1 1 0 -0 -1 -2 -3 -3 -3 -4 -4 -4 -5 -5 -6 -6 -7 -7 -8 -8 -8 -9 -10 -10 -10 -11 -11 -12 -12 -12 -12 -12 -13 -13 -13 -13
13 10 12 16 15 10 11 14 14 13 12 10 9 10 11 10 9 6 0 -4 -1 1 -1 -3 -2 0 0 -1 -1 -2 -3 -2 1 -0 -2 -1 3 3 0 -1 0 1 2 3 4 4 4 4 3 2 2 2 1 0 -1 -2 -3 -3 -4 -4 -4 -4 -5 -5 -5 -6 -7 -7 -7 -8 -8 -9 -10 -10 -10 -11 -11 -12 -12 -12 -12 -12 -13 -13 -13 -13 -13
11 7 10 15 14 10 10 12 10 8 6 4 3 3 2 0 0 -1 -5 -6 -4 -3 -5 -6 -4 -2 -2 -2 -1 -1 -2 -2 0 -0 -2 -0 3 2 -1 0 3 2 3 5 5 4 3 3 3 3 2 1 -0 -1 -1 -3 -3 -4 -4 -4 -4 -4 -5 -5 -6 -6 -7 -7 -8 -8 -9 -9 -10 -11 -11 -12 -12 -12 -12 -12 -12 -13 -13 -13 -13 -13 -14
11 9 11 14 14 12 12 9 4 1 -1 -2 -4 -5 -7 -5 -1 -0 -5 -8 -7 -5 -4 -3 -1 -1 -2 -3 -1 -0 -1 -1 1 1 -2 -1 2 3 2 4 5 2 1 3 4 3 3 3 2 2 1 -0 -1 -1 -2 -3 -3 -4 -4 -4 -4 -5 -5 -5 -6 -6 -7 -7 -8 -9 -9 -10 -11 -11 -12 -12 -12 -12 -12 -12 -12 -13 -13 -13 -13 -14 -15
9 9 9 8 8 7 4 0 2 5 2 -5 -7 -7 -7 -3 2 1 -6 -9 -8 -6 -6 -5 -2 1 1 -1 -1 1 1 0 1 1 -1 0 3 3 2 4 6 4 2 2 2 2 2 2 1 0 0 -1 -2 -3 -4 -3 -3 -4 -4 -4 -5 -5 -6 -6 -7 -7 -7 -8 -9 -9 -9 -11 -11 -11 -12 -12 -12 -12 -12 -12 -13 -13 -13 -13 -14 -15 -15
7 8 7 5 7 7 2 -1 5 11 6 -0 -1 -3 -4 -1 3 -0 -7 -9 -7 -7 -6 -4 -2 -0 -0 -1 1 4 2 -1 -1 1 3 3 3 2 1 3 6 5 3 2 2 2 1 0 -1 -1 -1 -1 -3 -4 -4 -4 -4 -4 -5 -5 -5 -6 -6 -7 -7 -7 -7 -8 -8 -9 -10 -11 -11 -11 -12 -13 -13 -13 -13 -13 -13 -13 -13 -14 -15 -15 -15
7 7 4 2 4 6 5 5 9 11 8 7 6 2 -2 1 4 -1 -7 -8 -5 -2 0 1 -0 -0 2 3 5 5 2 -2 -3 1 3 1 -0 0 3 5 5 4 3 3 1 0 -0 -2 -3 -3 -2 -2 -3 -4 -4 -4 -4 -5 -5 -5 -6 -7 -7 -6 -7 -7 -8 -8 -9 -9 -10 -11 -11 -11 -12 -13 -13 -13 -13 -12 -13 -13 -14 -14 -15 -15 -16
8 7 3 -1 -2 -0 2 5 7 7 5 4 2 -1 -2 1 1 -5 -8 -5 -1 2 2 0 -1 2 6 5 2 1 1 -0 1 3 3 1 -1 1 4 5 4 2 2 2 0 -1 -2 -3 -5 -5 -5 -5 -4 -4 -4 -5 -5 -5 -5 -5 -6 -7 -7 -7 -7 -7 -8 -9 -9 -10 -10 -11 -11 -12 -12 -13 -13 -13 -13 -13 -13 -14 -15 -15 -16 -16 -16
Height
829 830 830 831 832 832 832 832 832 831 831 832 831 832 834 838 843 843 839 838 836 838 860 885 889 890 897 899 898 899 897 894 896 899 900 897 895 895 894 896 897 896 897 897 898 896 892 891 892 891 894 901 910 922 927 924 920 911 899 898 905 901 894 888 873 859 870 892 897 892 890 888 889 898 904 904 907 907 908 909 910 910 899 887 892 883 850
830 831 831 832 832 832 832 831 831 832 832 832 831 833 839 843 844 843 841 836 833 841 860 879 889 895 898 895 895 898 898 895 895 895 895 896 896 891 892 898 897 898 904 901 897 895 891 890 894 896 895 905 920 928 925 920 915 907 901 902 903 895 886 884 878 869 871 880 884 884 884 883 888 902 911 913 914 915 917 920 921 912 894 889 902 889 852
831 831 831 832 832 832 832 832 832 832 832 832 832 835 840 842 844 846 844 839 839 854 868 874 881 889 889 887 892 894 895 897 898 897 897 903 902 894 894 901 901 902 906 901 899 901 894 890 896 900 898 905 920 926 924 921 916 912 915 916 909 897 888 886 889 891 888 881 878 876 876 880 888 901 914 917 918 919 915 914 917 910 895 895 904 890 856
831 832 832 832 832 833 832 833 833 832 832 833 832 835 839 840 845 850 851 850 854 869 880 874 872 881 880 881 892 894 889 895 902 901 897 902 905 900 900 903 900 899 900 895 893 898 900 898 895 896 897 902 914 922 923 922 919 916 920 921 913 902 896 892 893 896 892 885 882 878 880 888 889 895 910 918 922 922 915 912 915 909 902 899 895 886 868
832 832 832 832 833 832 832 833 833 832 834 832 832 838 842 843 855 862 859 859 862 870 880 878 874 878 876 878 891 893 889 893 898 899 898 902 904 901 901 902 896 892 895 892 889 893 900 900 895 899 904 905 911 919 921 919 919 918 919 921 913 897 891 897 901 899 891 886 885 884 889 895 892 895 908 916 921 922 918 918 914 910 913 902 883 881 878
832 832 832 833 832 832 832 833 833 833 833 832 833 841 847 849 863 873 865 862 867 870 876 883 883 882 884 891 896 892 890 892 892 895 900 902 902 897 894 898 898 899 901 894 888 890 893 893 897 904 909 908 906 909 912 913 917 918 916 917 913 896 891 903 908 903 897 893 891 891 894 897 896 900 907 912 920 923 920 918 913 912 917 904 882 880 881
833 832 832 833 832 832 832 832 833 832 833 833 831 839 852 856 862 874 872 870 880 885 887 889 886 884 887 894 896 891 888 890 896 901 898 894 899 897 888 892 900 906 907 899 891 893 890 889 898 904 907 908 905 902 903 908 914 915 910 915 918 904 894 906 916 910 900 893 894 897 898 898 901 906 908 909 914 917 916 913 909 908 907 898 887 883 877
833 833 833 833 832 832 832 832 833 832 832 833 832 838 850 851 853 864 870 876 889 895 894 889 881 882 886 885 891 897 891 889 898 905 897 887 892 896 890 894 904 909 909 902 897 898 897 893 899 906 905 906 907 904 903 906 911 911 911 917 919 906 900 913 924 912 895 891 895 896 896 899 905 908 910 912 911 911 913 912 908 906 899 891 888 885 875
834 834 833 834 833 833 833 832 833 833 832 832 836 841 846 846 849 854 856 872 890 891 891 891 878 876 883 883 890 896 891 892 896 898 900 896 891 894 895 896 905 911 909 903 900 902 904 901 904 909 907 905 908 909 909 913 910 907 915 922 918 910 908 918 923 905 885 886 892 890 897 908 910 910 911 913 912 912 913 911 908 905 899 891 888 886 876
835 835 834 835 834 833 834 834 833 834 833 832 836 843 847 847 851 852 850 868 891 892 888 888 877 877 889 893 894 894 894 901 900 890 896 903 899 900 902 899 901 903 900 901 904 906 909 910 911 913 912 912 915 915 915 919 915 912 918 925 928 926 915 915 924 908 883 884 893 892 898 903 902 907 912 910 910 910 907 905 903 900 897 894 890 883 874
837 837 836 836 836 835 835 835 834 834 834 833 836 841 845 844 847 852 850 862 889 899 889 879 877 885 897 899 898 899 899 902 900 889 888 896 902 906 906 902 898 896 898 906 911 911 912 912 913 915 914 915 919 920 919 921 922 923 923 921 926 929 919 920 932 917 893 895 896 882 880 886 892 902 909 908 909 909 905 902 899 894 891 891 887 880 874
840 840 839 839 838 838 838 836 836 836 835 835 836 838 843 843 843 849 849 857 884 899 888 885 893 897 899 899 897 897 897 898 901 900 893 894 902 907 907 903 896 895 905 913 913 912 912 911 913 914 915 917 918 918 919 920 924 928 926 918 914 915 917 927 937 926 909 906 901 882 874 885 898 905 906 907 908 907 902 897 892 891 889 886 885 882 877
842 842 841 841 840 840 840 839 838 838 838 838 838 838 842 844 843 849 852 860 883 895 888 894 909 907 901 901 898 897 902 905 907 909 903 898 899 902 902 902 899 900 909 913 912 911 908 909 912 909 910 913 913 914 920 924 925 925 924 921 913 911 918 926 929 925 915 911 913 903 886 887 901 905 904 906 906 904 902 895 887 888 889 887 886 883 877
845 845 844 843 843 842 842 841 840 840 840 840 840 840 843 844 844 849 851 858 884 906 900 893 899 901 899 900 899 898 902 905 904 905 905 902 900 898 900 903 903 905 909 909 910 908 902 900 902 901 907 910 904 906 918 925 926 924 923 922 917 913 918 919 919 924 924 920 919 910 892 890 902 907 907 908 907 907 908 901 888 884 888 888 885 880 874
847 847 846 845 845 844 844 844 843 842 843 843 842 842 844 845 845 847 850 857 878 900 902 891 890 894 897 899 901 896 893 895 897 898 902 906 903 899 903 906 905 906 909 907 906 904 897 891 888 887 892 894 891 895 907 916 922 925 926 925 921 917 918 916 916 926 932 927 920 911 899 894 899 905 906 907 907 906 906 904 892 883 885 886 882 877 873
849 849 849 848 847 847 846 846 845 845 845 845 844 844 845 847 847 847 851 857 866 880 894 900 900 899 897 901 904 899 892 892 894 892 893 896 898 899 904 907 905 907 908 905 903 900 891 888 890 887 884 889 892 894 898 903 910 920 925 924 921 923 927 923 919 927 934 931 925 918 907 897 899 905 903 903 905 902 901 903 892 880 881 884 881 878 874
852 851 851 850 849 849 849 848 848 848 847 847 846 845 846 849 850 849 852 858 869 885 901 906 904 901 896 896 900 900 898 898 897 893 888 889 895 899 902 905 907 907 904 900 899 895 888 892 899 893 890 900 901 894 894 898 904 911 917 918 921 927 931 928 922 925 930 929 924 917 907 900 902 904 902 901 901 896 900 905 892 878 881 884 881 880 876
855 854 853 852 852 851 851 850 850 850 849 849 848 847 849 851 851 851 853 859 872 892 907 907 902 901 898 896 898 901 902 901 898 895 892 893 898 897 897 902 902 899 900 898 894 890 888 895 902 893 890 903 907 897 895 901 906 912 915 917 923 931 936 936 930 925 926 927 922 913 905 903 902 903 902 901 897 897 906 908 894 883 884 884 882 881 877
857 856 856 855 854 853 853 852 852 851 851 850 849 850 852 854 853 853 855 861 872 888 904 907 904 904 904 904 903 903 904 902 899 894 889 889 896 900 902 903 899 896 899 896 894 895 892 894 909 910 899 901 906 902 900 906 911 917 920 921 925 930 933 934 931 926 924 925 922 911 902 902 903 902 901 900 904 909 909 901 893 889 888 885 882 880 876
860 859 858 857 856 856 855 854 854 853 852 851 851 852 854 856 855 853 855 864 878 894 905 907 905 905 906 905 903 901 901 901 899 896 889 889 898 901 894 891 893 896 896 889 892 904 898 891 908 916 902 899 906 904 905 916 920 920 922 924 926 928 925 924 929 931 924 922 923 918 907 901 901 903 903 904 909 912 904 896 894 894 889 885 882 878 875
862 861 861 860 859 858 857 856 856 855 854 854 852 853 856 858 857 856 856 859 870 888 902 905 905 906 906 906 906 904 902 900 899 899 896 896 902 898 887 887 893 895 894 889 891 901 901 899 909 911 902 903 908 905 908 916 919 923 929 927 927 929 925 921 929 935 930 924 923 917 906 900 902 906 907 906 905 905 901 898 896 892 889 886 882 876 873
865 864 864 862 862 862 860 859 859 858 858 858 855 853 858 862 862 862 861 862 870 887 901 905 906 906 906 906 906 905 904 904 903 903 902 900 902 901 895 896 897 896 898 898 893 894 900 904 907 905 901 903 907 913 920 915 909 921 931 925 921 925 923 920 924 928 925 920 913 906 902 903 905 906 906 904 903 902 901 899 895 891 888 886 881 875 872
868 867 867 865 865 864 863 862 863 861 861 861 858 856 860 865 866 865 865 869 880 895 904 905 905 906 907 907 906 905 905 905 904 905 905 902 901 901 900 900 899 899 902 901 895 894 898 901 902 900 900 904 906 914 922 918 912 921 926 919 918 922 923 924 925 922 919 913 905 904 905 904 905 905 904 903 903 901 900 897 893 890 886 883 880 875 870
870 869 869 868 867 867 866 865 865 864 864 864 862 861 862 866 868 868 868 873 883 893 901 906 907 907 907 908 906 905 905 905 904 905 906 904 901 898 899 901 902 901 902 901 901 902 901 904 909 904 898 904 908 905 907 911 916 922 922 918 921 923 923 924 923 921 921 912 903 904 906 903 902 902 900 901 901 899 898 896 891 887 883 880 877 874 870
873 872 872 871 870 870 869 868 868 867 867 867 866 866 866 868 870 869 869 873 879 884 894 904 908 909 909 908 907 906 905 905 905 904 904 906 905 901 900 903 903 902 902 902 903 903 900 902 909 904 898 905 911 906 904 909 913 917 919 920 921 923 924 924 921 920 920 911 902 905 906 903 903 902 900 900 899 896 895 894 890 886 881 876 873 872 869
875 875 874 874 873 872 871 871 871 870 870 870 870 869 869 870 872 872 871 873 878 883 892 903 909 909 909 908 907 907 906 905 905 905 904 904 905 904 904 904 903 903 904 904 903 904 903 903 905 902 900 907 912 911 911 911 913 917 919 917 919 923 923 922 920 919 915 907 903 905 905 901 901 901 901 900 898 896 894 891 888 885 880 875 873 870 868
878 878 877 876 876 875 874 874 873 873 874 873 873 872 872 872 873 874 873 874 875 879 889 902 909 909 909 909 908 907 907 906 905 905 905 904 904 904 904 904 903 903 903 904 904 905 904 903 904 906 909 913 916 920 921 918 917 921 919 916 920 923 920 919 922 921 915 908 907 909 909 904 901 900 900 899 898 896 894 890 887 884 881 877 873 868 865
881 880 880 879 879 878 877 877 876 876 876 876 875 874 874 874 875 875 875 875 873 877 888 901 907 908 907 908 909 908 907 907 906 905 905 904 904 904 903 903 904 904 903 902 902 902 902 901 904 913 918 916 914 920 925 922 920 920 917 915 918 920 918 919 921 919 913 909 909 912 912 908 903 901 900 899 897 895 893 889 887 884 881 879 874 868 863
883 882 882 881 881 880 879 879 878 877 877 877 878 877 875 877 879 878 877 877 875 880 892 901 905 907 908 908 910 910 908 908 907 906 906 905 904 904 904 904 903 904 905 904 902 902 905 908 911 915 916 912 912 916 921 922 919 915 913 913 915 916 917 918 918 916 913 911 910 912 911 908 904 902 900 898 896 894 891 888 885 882 880 878 873 869 864
885 885 884 883 882 881 880 879 878 878 877 877 877 878 877 879 881 881 881 881 879 881 889 895 900 907 911 910 910 910 909 908 908 906 906 905 905 904 904 904 904 905 905 904 903 904 908 913 915 914 913 913 914 916 920 924 920 912 910 912 915 915 915 916 916 915 913 911 910 911 909 906 903 901 898 896 895 893 889 886 883 881 878 875 872 869 865
887 886 885 884 883 882 881 879 878 877 877 877 878 880 882 883 884 883 883 883 881 882 887 894 902 909 911 911 910 910 909 908 907 907 906 905 905 905 904 904 904 904 903 903 905 907 909 911 912 913 914 915 914 915 921 924 917 910 910 913 913 914 915 914 914 913 912 911 910 909 907 904 901 899 896 894 892 890 887 884 882 880 876 873 870 867 864
888 888 887 886 885 884 883 882 881 879 877 878 880 883 887 887 886 885 884 883 883 883 885 891 900 907 909 909 911 911 909 908 907 906 906 905 905 905 904 904 904 904 904 904 906 908 911 912 912 914 915 915 915 919 922 918 910 908 911 912 911 912 913 912 912 912 911 910 910 908 905 902 900 898 896 892 890 888 886 882 880 878 874 870 867 864 862
889 890 889 887 887 887 885 885 884 882 881 882 884 886 888 887 885 885 885 884 884 885 886 890 899 906 908 909 911 911 909 908 908 907 905 905 906 905 904 904 905 904 904 904 905 908 911 913 912 913 915 916 918 919 917 911 907 908 910 910 911 913 912 911 911 911 909 909 909 908 904 901 898 897 894 891 889 886 884 881 878 875 872 868 864 861 858
891 891 890 889 889 888 887 887 887 885 884 886 886 888 888 887 887 886 885 884 885 888 891 897 902 904 906 907 909 910 910 908 908 909 906 905 906 906 904 904 904 904 904 905 907 909 912 913 912 912 914 919 921 917 910 906 907 909 910 910 911 911 911 911 909 908 908 907 907 906 903 900 898 895 892 889 887 884 881 879 876 873 870 866 861 857 854
891 891 890 890 890 889 889 889 888 887 887 888 889 891 890 889 889 887 885 885 886 888 897 907 909 907 907 905 904 907 911 911 911 912 910 907 906 907 906 904 903 903 905 907 908 910 912 915 913 912 915 918 916 910 906 906 908 909 909 909 910 910 911 911 908 906 906 906 904 903 901 898 896 894 890 887 885 882 879 877 874 871 868 864 859 856 853
892 891 890 890 890 889 890 889 888 889 890 890 891 892 891 890 891 890 888 888 888 891 901 913 918 919 918 913 909 910 912 910 911 914 913 908 907 908 908 904 902 906 911 911 910 912 915 916 914 913 916 915 908 904 906 908 909 909 908 908 909 910 909 908 907 906 904 903 902 900 898 896 894 891 888 885 882 880 877 874 871 869 866 863 859 856 853
892 891 891 890 890 890 890 890 891 891 891 892 893 892 891 891 892 890 890 892 894 897 904 910 918 927 929 924 919 917 913 911 913 914 912 911 910 911 911 906 904 908 911 910 911 916 918 917 915 912 911 910 907 906 909 909 907 908 909 907 907 908 907 906 906 905 902 901 899 896 895 893 890 888 885 882 879 877 875 873 871 869 867 863 860 856 853
891 891 891 890 890 892 892 892 892 892 892 893 892 890 891 893 892 892 897 900 900 905 912 914 921 932 934 926 920 916 914 916 917 913 912 914 912 910 910 910 909 911 910 910 916 921 918 918 924 920 911 909 910 909 909 909 907 907 908 907 906 907 906 905 905 904 902 900 897 894 894 891 888 886 884 882 879 877 875 873 872 870 866 863 859 856 852
891 892 891 890 892 894 894 893 893 892 892 892 891 891 895 897 893 896 906 910 909 913 919 920 925 933 931 923 920 919 919 920 919 915 915 916 911 909 911 911 912 913 909 907 917 920 911 913 927 924 911 909 912 909 906 908 908 906 906 906 906 905 905 904 903 903 902 899 897 896 894 892 890 887 885 883 880 877 875 872 870 868 865 861 858 854 850
892 892 892 892 894 894 893 893 893 891 891 892 891 893 897 900 902 908 912 910 910 918 924 925 929 935 933 927 925 924 922 921 921 921 921 919 916 917 916 913 914 915 908 907 918 922 911 912 923 919 905 905 911 908 905 907 907 905 905 905 904 903 904 903 901 901 900 898 897 895 893 892 891 888 886 884 881 878 875 872 869 866 864 860 857 853 849
893 892 892 893 894 893 893 894 893 892 893 894 894 898 903 907 916 925 919 907 908 922 931 930 928 929 931 931 929 926 924 926 927 928 926 922 921 920 916 915 918 915 906 909 923 926 916 913 917 912 904 905 909 906 905 906 905 903 903 904 902 902 902 900 899 899 898 896 895 893 892 890 889 887 885 883 881 878 875 872 868 865 862 859 855 851 847
893 892 893 894 894 893 894 894 892 893 895 893 895 907 917 917 918 921 917 913 918 927 930 929 928 926 928 931 930 927 927 929 929 928 924 921 921 921 920 921 919 909 905 917 929 924 914 911 909 905 905 907 906 905 905 905 903 902 902 901 901 900 900 899 898 897 896 894 893 892 890 888 887 885 883 881 880 877 874 871 867 864 861 857 853 849 844
894 894 894 893 894 893 894 895 896 899 902 900 898 904 911 915 920 923 922 925 932 932 927 927 929 928 926 929 930 929 929 929 929 930 927 924 925 925 922 918 914 909 915 926 926 914 908 908 905 902 905 906 904 905 905 903 902 902 901 899 899 899 897 897 896 895 894 893 891 889 888 886 884 883 881 880 878 875 872 869 865 862 858 854 849 845 841
895 895 893 894 896 896 894 895 898 900 902 905 907 903 901 907 918 922 918 919 926 929 929 931 931 927 926 930 931 930 930 929 928 928 927 928 929 925 915 910 913 917 921 923 919 914 914 913 908 905 906 906 904 905 904 902 902 902 899 898 898 897 895 895 894 892 891 890 888 887 886 884 882 880 879 877 876 874 870 867 863 859 855 852 846 842 839
894 895 894 894 897 898 895 897 902 903 902 907 912 909 904 905 910 913 917 923 928 929 931 936 936 931 929 932 931 930 933 932 926 925 928 929 926 920 915 915 921 924 922 919 916 914 911 908 906 905 905 904 903 903 903 902 901 901 899 897 896 895 894 893 892 890 889 888 886 885 884 881 880 879 877 875 873 871 868 865 861 857 853 849 844 840 837
895 899 898 893 897 904 904 901 901 903 906 912 914 911 909 910 913 919 927 933 933 930 932 937 937 933 931 932 931 932 935 932 926 929 936 930 917 915 922 924 921 919 915 910 906 903 901 901 903 904 903 902 902 902 902 902 901 900 899 897 894 893 892 892 890 889 888 886 884 883 882 880 879 877 875 873 871 868 865 862 859 855 852 848 843 839 835
897 904 901 895 899 908 909 906 907 912 917 922 923 924 925 926 928 930 933 934 934 935 937 939 937 934 934 935 932 931 936 935 928 929 934 928 917 920 927 922 915 915 912 902 897 901 905 905 903 902 902 903 903 902 901 901 900 899 898 896 893 892 891 890 889 887 886 884 883 882 880 878 877 875 873 871 868 865 862 860 857 854 851 846 842 838 834
899 902 899 897 901 904 905 911 921 926 928 931 933 935 937 935 930 929 932 935 936 936 935 935 934 932 933 936 933 930 934 933 926 926 934 931 921 918 917 910 908 916 918 908 902 904 906 904 902 903 903 903 902 902 901 900 899 898 897 894 892 891 890 888 887 886 884 883 882 880 878 877 876 873 871 869 865 862 860 857 854 852 849 845 841 837 833
901 901 902 908 913 915 920 927 925 919 924 934 938 937 937 933 928 927 932 935 936 935 936 937 933 928 930 935 934 930 931 930 925 926 931 927 918 918 920 911 903 906 911 910 909 907 905 904 905 904 903 902 902 901 900 899 898 897 896 893 892 890 888 887 886 885 883 882 881 878 877 876 874 872 870 867 863 859 857 854 851 849 847 844 840 836 831
902 903 909 914 913 915 926 930 918 908 916 928 931 932 934 931 926 927 932 935 936 936 936 935 933 932 934 935 927 921 926 935 935 928 921 917 920 927 926 913 902 902 906 909 910 908 905 906 906 904 902 902 901 899 898 898 896 895 894 892 890 889 887 885 885 883 881 880 879 877 876 875 873 870 869 866 862 859 856 852 849 847 845 843 839 834 829
905 907 915 919 916 914 919 918 909 905 911 916 917 924 930 927 923 926 932 934 934 932 930 931 934 933 929 924 918 916 925 938 940 930 922 923 930 929 916 903 902 907 907 906 907 907 906 906 906 904 902 901 899 898 898 897 895 894 893 891 889 888 886 884 883 882 880 879 878 877 875 874 872 869 867 864 862 859 855 850 848 846 843 840 837 833 828
909 911 920 927 928 926 924 919 915 916 919 920 922 926 927 924 925 930 933 932 930 928 928 933 935 927 918 919 925 929 930 931 928 922 918 922 927 922 910 903 906 909 907 906 907 907 905 905 905 903 902 901 899 897 897 895 893 892 891 889 887 886 885 883 882 881 879 878 877 876 874 872 870 868 865 863 860 858 854 850 847 844 841 838 835 831 826
Wind_Speed
13 12 10 7 6 5 3 3 4 3 2 3 0 3 3 3 2 7 15 5 7 11 6 1 4 4 1 1 1 0 0 2 1 1 1 1 1 0 1 1 1 1 0 0 1 2 1 0 0 0 0 2 3 2 1 1 2 1 1 1 0 1 2 2 5 4 2 5 2 1 5 7 6 5 3 2 1 0 2 3 3 5 7 8 9 12 10
9 8 6 5 4 3 2 2 3 3 4 4 4 4 2 1 2 6 16 7 4 4 4 2 2 2 2 1 1 1 1 1 0 1 1 0 0 1 1 1 0 1 1 0 1 1 1 1 0 1 0 1 3 2 0 1 1 1 0 0 1 1 1 3 6 5 2 1 1 1 2 1 2 3 3 2 2 1 0 1 1 5 7 7 10 12 12
6 5 4 4 4 3 3 4 4 4 4 4 5 5 3 2 2 2 16 19 10 4 1 3 4 3 3 2 1 1 1 1 1 1 0 1 0 1 2 1 1 1 1 1 0 0 1 0 1 1 1 1 2 2 0 1 1 0 1 3 3 1 1 3 5 5 6 6 5 5 5 5 2 3 3 3 3 2 1 2 4 7 9 10 10 12 17
4 4 4 3 2 2 3 3 3 3 2 3 6 6 3 2 3 1 7 14 10 3 1 2 4 4 4 3 1 0 1 1 0 0 0 2 1 1 1 0 1 1 1 1 1 0 1 1 1 1 1 1 1 1 0 1 1 2 2 2 2 0 1 3 2 3 6 8 10 10 9 6 6 3 3 2 1 1 2 4 5 9 13 12 11 13 22
4 3 3 2 2 2 4 5 5 5 4 4 7 8 4 1 3 1 0 3 3 3 2 2 2 2 2 1 1 1 1 1 1 1 0 1 1 1 1 1 1 1 1 1 1 0 0 1 1 1 1 1 0 1 2 2 2 3 1 1 1 1 1 1 1 7 10 11 14 14 9 7 9 8 1 3 2 1 2 5 8 11 11 12 15 20 24
3 3 3 3 3 1 4 4 2 2 1 1 3 4 4 2 2 1 1 1 1 2 2 2 3 4 2 1 1 1 1 1 1 1 0 1 0 1 1 1 2 2 2 2 2 2 1 1 1 1 0 2 1 1 2 2 1 1 0 1 1 1 1 1 1 7 11 13 13 10 6 5 7 7 3 3 3 3 4 8 11 10 10 14 22 27 26
3 3 3 3 5 5 4 4 3 3 3 3 5 5 2 2 3 0 2 2 2 1 3 2 3 4 3 2 1 1 1 1 1 0 0 1 1 1 0 2 3 1 1 1 2 3 2 1 1 1 2 2 1 1 1 1 0 1 1 2 1 1 0 1 1 7 10 10 7 3 4 7 5 4 3 1 1 3 5 10 13 13 14 18 23 28 25
5 5 4 4 5 7 7 7 6 6 6 5 7 6 1 1 3 2 2 4 3 2 2 1 1 2 2 1 1 1 1 1 1 1 1 0 1 0 1 2 2 2 1 0 1 2 2 3 3 2 2 1 1 1 0 0 1 2 2 2 2 2 2 2 1 5 6 3 3 4 6 6 3 5 4 2 5 6 7 10 12 13 16 20 23 24 20
10 9 8 8 8 8 8 7 7 5 5 7 7 5 3 4 5 5 5 4 2 2 1 0 0 1 1 1 1 1 1 2 1 1 1 1 0 1 0 1 2 2 1 1 1 3 3 3 2 2 1 1 1 1 1 1 2 2 3 2 3 3 2 1 1 4 4 2 8 13 7 3 4 4 2 3 6 8 8 8 10 12 17 22 21 16 13
15 14 14 12 11 10 9 8 8 8 8 9 7 4 5 7 5 3 5 4 2 2 1 1 1 1 1 1 2 1 1 1 0 1 1 2 1 0 1 2 2 1 1 1 1 2 1 1 2 1 1 3 4 3 4 4 3 1 1 1 1 1 1 1 2 4 6 7 14 14 3 5 2 2 1 5 10 13 13 11 12 15 14 14 14 12 14
19 18 17 16 14 13 11 9 9 8 8 8 9 11 10 7 4 2 4 4 1 1 0 1 1 1 1 1 1 1 2 1 1 0 0 1 1 1 1 2 1 0 2 3 2 2 5 6 5 5 6 7 7 5 6 7 6 3 1 1 1 1 1 1 2 4 7 11 16 12 2 2 2 3 5 8 12 15 16 16 16 16 13 12 13 15 20
20 19 19 18 17 15 14 13 11 9 8 9 13 15 12 7 6 4 4 4 1 1 1 1 1 0 1 1 1 1 1 1 0 0 2 1 1 1 2 2 1 0 4 5 5 6 7 7 7 8 9 8 8 8 8 8 6 4 1 1 1 2 2 1 0 2 4 8 10 7 4 5 2 5 4 7 9 13 18 20 16 15 16 17 17 19 25
22 22 21 20 19 17 16 15 13 12 10 8 12 15 12 9 7 4 4 5 2 1 1 1 1 1 2 2 1 1 1 0 1 1 2 1 0 1 2 1 1 4 9 9 7 5 4 4 5 5 5 5 5 7 8 7 5 4 3 1 1 2 2 1 0 1 3 5 5 3 6 4 4 5 1 7 10 14 17 19 18 16 14 13 17 24 27
23 23 22 22 21 20 19 17 14 12 8 5 9 14 12 7 5 3 3 5 2 1 1 1 1 1 2 1 1 1 0 0 0 1 1 0 2 2 1 0 3 11 13 9 5 2 1 2 2 2 2 1 1 1 2 2 3 4 5 4 2 3 2 1 2 1 1 4 4 4 8 4 3 3 2 6 10 12 12 15 17 13 8 12 21 28 29
23 23 23 22 22 21 20 19 16 14 10 6 9 14 11 6 5 5 6 6 4 1 1 0 2 2 3 1 0 0 0 1 0 0 0 0 2 1 2 2 6 14 11 4 2 2 1 1 1 0 1 2 2 1 2 2 1 3 3 3 4 4 2 2 2 1 0 4 5 4 5 3 2 2 4 6 7 9 11 14 13 6 8 18 25 29 31
23 23 22 22 22 20 19 18 16 14 11 9 10 15 16 13 10 11 10 7 4 3 0 1 1 2 3 1 1 0 0 1 0 1 1 0 1 0 3 3 6 9 6 1 1 1 1 0 1 1 1 2 2 1 1 2 2 1 1 3 5 5 3 1 1 1 1 2 3 3 4 2 2 4 9 8 8 11 13 12 8 7 16 24 26 28 30
23 23 22 22 21 20 18 17 15 14 12 9 10 14 17 13 10 11 11 6 4 3 1 1 1 1 1 1 0 0 1 0 0 0 1 1 1 1 2 3 4 6 4 1 1 1 2 1 1 1 1 1 1 1 1 0 0 0 1 1 4 4 2 2 1 1 1 2 3 3 3 1 2 6 11 11 12 14 13 8 7 14 23 25 25 27 28
23 22 22 22 21 21 20 17 14 13 12 10 11 16 18 13 8 7 8 5 3 3 1 1 0 0 1 0 1 0 1 0 0 0 1 1 1 1 0 1 2 3 3 1 1 1 1 1 1 1 1 1 0 2 1 0 1 1 1 1 1 1 1 1 1 2 3 3 3 3 3 2 3 7 11 13 13 11 8 7 11 18 24 24 24 25 25
24 23 22 22 22 22 21 20 16 12 10 9 8 12 15 13 10 11 11 6 3 3 2 1 1 1 1 0 0 0 1 0 1 0 0 1 0 1 1 1 1 1 1 1 1 1 0 1 1 0 1 1 0 1 0 1 0 0 0 1 0 0 1 1 1 3 2 2 4 5 3 2 4 10 12 12 10 7 6 10 16 20 23 24 24 23 23
23 23 23 22 23 23 22 22 19 16 14 10 7 13 17 11 6 6 8 8 5 4 3 2 1 2 1 1 0 0 0 0 0 0 0 1 0 1 1 1 0 0 0 0 0 1 1 1 1 1 2 0 1 0 1 1 0 0 0 1 0 0 1 1 1 2 2 2 2 4 3 2 8 12 11 8 7 8 10 14 17 19 21 22 21 20 21
23 23 23 23 24 23 23 23 20 17 16 11 9 17 24 20 15 12 14 19 14 4 1 2 4 6 5 4 2 1 1 0 0 0 0 1 1 1 1 1 0 0 0 0 0 1 1 1 1 1 1 1 1 1 1 1 1 0 0 1 2 2 0 2 1 1 1 2 1 1 6 7 9 9 9 8 9 10 11 13 15 16 17 17 17 18 20
22 23 23 23 23 22 22 23 20 18 16 12 12 20 25 25 24 19 18 24 22 11 7 9 9 9 9 8 6 4 2 1 1 0 0 1 0 0 1 1 0 0 0 0 0 0 1 1 1 1 1 1 1 1 0 0 1 0 0 2 2 2 2 2 2 2 2 4 6 6 9 9 8 8 10 12 13 12 13 15 14 14 14 14 15 18 21
23 23 22 22 22 21 21 22 21 20 18 14 15 22 25 22 21 18 19 26 25 14 10 10 8 7 7 7 7 7 5 3 0 1 1 0 1 0 1 1 0 0 0 0 1 1 1 1 0 0 1 1 1 1 1 1 1 0 1 2 1 1 2 1 1 3 4 7 10 10 10 10 10 10 9 10 11 11 13 15 14 14 15 14 15 18 21
23 22 21 20 19 19 19 20 20 21 20 17 17 23 26 23 19 18 19 18 12 5 5 5 3 3 3 4 6 6 6 5 2 1 2 1 1 0 0 0 0 1 0 0 0 1 1 1 0 0 1 1 1 2 1 1 2 2 2 1 1 1 2 2 3 4 4 4 6 8 11 13 14 12 10 11 13 14 14 14 14 16 18 17 18 21 24
22 21 20 19 18 18 19 19 18 17 17 16 16 18 21 17 12 10 11 9 5 3 4 2 2 3 3 4 5 6 7 6 4 1 2 3 3 2 1 1 1 1 1 1 1 1 1 1 1 1 1 1 1 1 0 1 2 3 2 1 1 1 2 3 5 5 5 8 9 10 12 12 11 10 10 11 14 16 18 19 20 22 24 25 27 27 25
20 20 19 19 18 18 20 20 20 19 16 14 13 16 18 18 13 10 12 13 9 5 3 1 1 2 2 3 5 6 7 7 5 3 1 2 4 3 2 2 1 1 2 3 1 0 1 1 1 0 1 1 0 0 0 1 2 2 2 1 1 2 2 3 5 6 7 9 10 12 12 9 7 8 12 13 15 17 19 21 23 23 24 25 29 31 29
18 17 17 18 19 20 22 22 23 22 20 18 18 18 19 18 14 10 8 7 4 2 2 2 0 1 1 4 8 9 8 8 7 5 3 1 2 3 3 2 0 1 1 2 1 1 2 1 0 0 0 0 1 1 0 1 2 1 1 2 2 1 2 3 4 4 5 7 9 11 10 8 8 12 16 17 18 18 18 19 20 20 20 21 24 28 31
19 15 13 13 14 16 18 20 21 21 20 19 20 23 25 24 21 16 11 5 3 4 3 2 1 1 2 3 9 10 8 8 8 7 5 3 1 2 3 3 1 0 1 0 0 1 1 0 0 1 1 1 1 1 0 0 1 1 3 3 3 2 3 3 4 5 6 8 9 8 8 9 11 14 15 17 19 18 16 17 18 19 21 23 23 23 24
22 19 15 12 9 7 6 6 7 9 10 11 11 15 20 22 20 19 16 12 12 12 6 2 3 2 0 2 7 9 6 6 8 7 6 5 4 3 2 1 1 1 2 1 0 1 1 0 0 1 0 1 1 1 1 1 2 2 2 5 4 3 3 3 5 7 8 9 8 8 9 10 12 14 15 17 19 17 15 17 20 21 24 26 25 24 23
21 21 20 19 16 14 10 6 2 1 1 1 3 5 9 12 14 15 13 10 10 10 5 2 2 1 1 1 4 8 7 5 4 4 5 6 6 5 4 4 3 2 1 1 1 1 1 1 0 0 1 2 1 2 2 1 2 1 3 5 5 4 3 3 5 6 8 8 8 9 10 11 14 16 16 16 19 18 16 18 21 24 26 27 25 25 25
18 19 20 20 21 21 19 17 12 5 1 1 0 2 2 2 8 11 9 6 6 6 5 3 2 1 1 0 2 8 9 6 4 3 3 4 5 5 4 3 2 1 1 0 1 1 1 1 1 1 1 3 2 2 2 1 2 2 3 4 4 4 4 4 5 6 8 9 9 10 11 11 12 13 12 15 20 22 20 21 24 25 26 27 26 24 24
15 15 16 17 18 18 19 20 18 16 16 16 14 11 6 1 5 7 7 6 5 5 5 3 1 0 1 1 2 7 9 5 3 3 2 2 3 3 3 3 2 1 2 1 1 1 1 0 1 1 1 2 2 2 2 2 2 2 2 3 3 3 3 4 5 6 8 8 8 9 10 9 9 11 13 18 22 22 21 23 25 24 25 27 26 23 22
11 12 13 14 14 15 16 17 16 18 23 27 24 21 18 12 8 5 4 5 7 6 4 3 2 1 1 1 1 8 10 4 2 3 2 2 4 4 1 2 2 1 2 2 1 1 1 1 1 1 1 1 2 1 1 2 2 2 1 2 3 3 4 5 6 6 7 7 7 8 9 11 13 16 18 20 21 21 21 23 23 23 23 24 22 21 23
8 8 9 10 10 10 11 12 14 16 19 19 18 19 22 22 19 13 5 3 6 8 6 4 2 0 3 1 1 5 9 3 1 2 2 2 5 3 1 1 1 1 2 2 1 1 0 0 1 1 1 1 1 1 2 2 2 2 2 3 2 3 4 5 5 5 6 7 8 9 11 14 15 16 17 18 19 21 22 21 20 19 17 16 17 21 25
7 6 5 5 6 7 6 7 9 11 12 11 10 11 14 18 22 21 14 7 4 3 3 4 3 1 3 3 1 4 8 4 0 0 1 2 4 3 0 1 1 1 1 2 0 1 1 1 0 1 1 0 1 2 2 2 1 3 4 3 3 3 4 5 5 5 7 9 10 11 12 13 13 12 12 14 17 19 18 18 18 18 15 14 18 23 25
6 5 4 3 4 5 6 6 8 8 7 6 5 7 8 10 13 17 19 18 13 6 2 1 2 2 2 2 2 4 7 4 1 1 1 1 2 2 1 1 1 1 1 2 1 1 1 1 1 1 0 1 2 2 1 1 2 4 5 5 4 3 4 5 6 7 8 10 11 10 10 11 11 11 10 11 14 17 17 17 18 18 16 15 17 21 23
5 4 2 1 2 3 5 6 7 6 6 5 3 3 5 5 4 7 12 15 16 12 6 3 2 1 0 1 2 4 6 3 0 2 2 1 1 2 1 1 1 0 1 2 1 1 1 1 1 1 1 1 1 1 2 1 3 4 4 4 4 3 4 6 6 7 9 10 9 8 8 9 9 9 10 11 14 16 16 16 16 16 16 16 17 19 22
4 4 3 2 2 3 3 4 4 4 5 5 2 2 4 5 4 4 5 6 7 9 7 4 2 0 1 2 2 3 4 1 1 2 1 0 1 2 1 1 0 0 1 1 1 1 1 1 1 1 2 2 1 1 3 3 3 3 4 4 4 4 5 6 6 6 8 8 8 8 9 10 11 11 11 12 15 16 16 17 18 18 18 19 20 22 24
4 3 3 4 3 1 0 3 4 4 4 4 2 2 4 5 4 2 3 3 3 3 3 2 1 1 0 1 2 3 3 2 1 2 2 1 1 2 1 0 1 1 1 1 1 1 1 1 1 1 2 2 1 2 3 3 2 4 4 4 5 6 6 6 6 6 6 7 9 9 10 10 11 12 11 11 13 16 18 20 20 19 19 22 23 24 24
4 3 3 3 2 2 2 4 5 3 2 4 4 3 2 4 3 1 1 3 3 2 1 1 1 1 1 1 2 1 3 3 1 1 1 1 0 1 1 1 1 1 1 1 1 1 1 1 1 1 1 1 2 2 2 2 3 4 5 5 6 6 7 7 8 7 8 10 11 11 11 12 13 14 13 12 12 14 17 19 21 21 22 23 25 25 25
3 3 3 2 2 2 3 5 5 3 2 2 3 3 2 2 2 1 1 3 2 2 1 1 1 1 1 0 2 1 3 4 2 1 0 1 0 1 1 1 1 1 1 1 1 1 1 0 1 1 1 2 3 2 2 3 4 4 5 7 8 7 8 9 9 9 9 10 11 11 12 13 15 16 17 15 14 14 17 20 23 24 25 25 26 26 27
4 4 4 4 3 2 2 4 6 5 2 2 2 2 1 1 1 1 2 1 1 1 1 1 0 2 1 1 2 2 1 3 2 1 0 1 1 1 0 1 1 1 1 2 0 2 1 1 2 2 2 3 4 3 2 4 5 5 6 8 9 8 8 9 10 10 10 10 12 14 15 16 19 20 20 19 18 19 21 24 25 26 27 27 26 26 27
5 4 3 3 3 4 3 3 4 3 2 2 2 2 2 2 2 1 1 1 1 1 1 1 2 2 1 1 0 1 1 2 2 1 0 1 1 1 2 1 1 1 0 0 2 2 0 1 2 2 2 3 3 3 4 5 6 6 9 11 11 10 10 10 11 12 13 14 15 17 18 19 21 22 22 22 21 21 24 27 28 28 28 27 27 28 30
1 2 2 2 3 4 3 2 2 2 2 1 1 1 1 3 1 1 1 1 0 0 1 1 1 2 1 1 1 0 1 1 1 1 0 1 1 2 1 1 1 1 1 1 1 1 2 2 3 3 3 3 3 4 4 5 5 5 8 12 13 12 12 12 12 12 14 15 17 19 19 20 21 21 22 22 21 21 24 27 29 30 29 27 29 33 35
1 2 3 3 2 3 1 1 2 2 1 0 1 3 2 1 2 3 1 1 1 1 0 1 1 0 2 1 1 1 0 1 1 0 0 1 1 1 1 1 0 1 1 1 1 1 2 2 2 3 3 3 4 4 4 5 6 6 7 10 11 12 11 11 11 11 13 15 17 19 20 20 19 19 20 22 23 23 24 25 27 28 28 27 28 32 34
2 2 3 2 1 2 1 1 1 1 1 2 2 3 3 2 2 2 1 0 1 1 0 0 1 1 1 1 1 1 0 1 1 0 0 1 0 1 1 0 1 2 2 1 1 2 2 3 2 2 3 3 4 4 3 6 9 9 7 8 10 11 10 11 11 12 14 16 18 19 20 20 17 15 16 20 24 25 25 25 26 28 28 27 28 31 33
2 2 2 2 0 1 1 1 1 1 1 2 2 2 1 0 1 1 1 1 1 2 1 1 1 0 0 0 1 0 1 1 0 1 0 0 1 1 1 1 0 0 0 1 2 3 3 2 2 2 3 3 3 4 4 6 9 10 9 9 11 12 11 11 13 14 16 17 18 19 20 20 18 17 18 21 24 26 27 27 27 28 29 29 30 33 34
1 1 2 1 1 1 0 1 1 1 0 1 0 0 0 0 1 2 2 3 3 2 2 1 1 0 0 0 0 1 1 1 0 1 0 1 0 1 2 2 2 2 2 2 3 2 2 3 3 3 3 3 3 3 4 5 8 10 10 11 12 13 12 12 14 17 18 19 19 19 20 20 19 20 21 23 25 28 30 30 30 29 28 30 33 35 36
4 3 2 2 1 1 1 0 2 2 1 1 1 1 0 0 1 2 3 4 2 1 1 1 1 1 0 1 1 1 1 1 0 1 1 1 0 0 0 1 2 2 1 2 2 2 3 4 4 4 5 5 4 3 4 7 10 12 13 14 15 16 15 15 17 19 20 19 18 19 20 19 19 21 22 23 26 30 32 32 31 29 28 30 33 36 37
5 4 2 2 1 0 0 1 2 3 3 1 0 1 1 0 2 3 5 5 2 1 1 1 1 1 0 1 2 1 1 1 0 1 1 0 1 1 1 2 3 3 2 2 2 2 3 4 4 5 6 6 5 5 7 10 13 16 17 19 20 20 20 19 19 19 20 20 19 19 19 19 20 21 22 23 26 30 31 31 31 30 29 31 34 37 38
3 3 2 1 0 1 1 1 1 1 2 2 2 2 3 1 2 4 7 6 2 2 1 0 0 1 2 2 1 0 1 0 1 1 1 2 2 2 2 3 4 3 2 2 3 3 3 3 3 3 5 5 6 9 12 15 17 20 22 22 21 21 21 21 20 19 19 20 18 17 18 20 21 22 23 24 25 26 27 29 31 31 32 33 35 37 38
2 2 2 2 1 1 1 1 1 0 0 1 1 2 2 1 1 5 9 7 3 1 1 1 2 3 1 1 0 0 0 1 1 1 2 2 2 3 3 4 3 2 2 4 4 3 2 4 5 6 7 7 10 14 16 18 20 22 23 23 22 21 21 21 21 20 20 19 18 17 19 21 22 23 24 25 23 22 22 26 30 33 34 35 35 37 38
Wind_Direction
121 124 127 137 151 166 197 236 250 268 243 210 343 50 55 67 107 355 352 16 103 68 68 8 26 71 128 319 77 350 191 164 161 172 197 254 227 168 88 79 94 169 210 182 196 206 208 210 30 231 231 45 60 85 77 268 252 254 193 168 238 265 261 290 285 276 112 103 89 79 112 109 93 70 74 108 116 35 303 300 326 312 288 300 309 290 284
121 122 125 133 138 133 124 121 116 101 125 140 100 93 91 73 151 12 10 17 169 83 82 131 67 97 168 157 109 306 254 152 112 239 260 350 223 131 76 67 98 101 127 191 206 197 204 232 60 88 196 72 86 99 35 297 276 319 357 315 346 330 303 332 328 332 13 86 344 296 249 265 64 80 84 82 83 77 199 177 315 294 284 306 312 289 284
121 117 120 122 114 111 111 116 127 117 120 135 110 118 139 65 122 338 17 37 68 91 87 133 129 143 149 115 66 3 95 84 11 300 52 59 321 29 73 65 55 108 142 193 175 64 340 273 135 116 164 124 107 111 357 309 266 309 305 296 309 322 354 1 359 350 336 321 314 315 316 322 353 105 103 63 66 86 319 309 300 298 306 307 292 282 294
124 117 119 116 85 93 103 97 139 142 111 135 111 96 125 70 55 320 6 31 53 77 2 68 116 148 145 107 56 28 94 69 49 217 102 101 93 25 65 47 9 102 164 252 215 101 22 36 98 138 154 98 101 140 184 189 246 288 299 292 301 142 109 20 5 278 283 291 290 304 323 313 297 324 94 110 87 71 333 319 302 304 309 299 280 288 301
127 121 107 96 74 118 128 99 102 111 95 110 96 64 46 95 75 49 332 28 44 66 38 22 74 135 143 99 100 138 67 23 130 178 253 100 106 10 71 42 351 15 6 322 276 290 64 93 75 58 358 318 290 224 213 206 269 293 292 263 295 215 194 53 349 254 262 278 284 295 310 299 298 312 315 152 143 119 315 304 302 310 308 296 299 307 307
123 119 101 85 59 94 184 174 147 113 77 116 106 56 17 60 134 238 292 89 93 55 42 37 59 63 60 74 80 78 58 27 99 159 185 114 141 254 125 53 28 23 340 323 328 335 3 138 161 98 332 295 308 163 207 228 291 297 79 36 330 296 229 106 293 262 268 279 282 286 289 283 292 292 252 164 156 190 275 297 304 309 296 291 303 309 308
111 119 114 85 61 69 117 152 149 106 100 102 100 90 38 56 115 115 346 67 113 22 19 43 66 63 65 87 86 83 124 118 80 242 212 105 118 219 315 21 36 69 303 329 358 340 339 319 277 165 161 267 267 150 209 201 142 182 61 31 342 271 255 126 263 283 285 283 271 249 279 291 286 244 209 152 253 264 292 301 306 304 291 292 304 306 306
99 103 109 95 80 86 98 115 124 112 104 96 80 76 78 172 144 135 59 82 84 25 11 17 68 65 52 70 80 103 160 145 110 188 233 87 89 84 4 24 55 88 110 49 14 329 285 276 273 195 166 254 231 154 348 71 60 47 55 16 307 329 6 89 133 284 285 276 272 291 302 302 267 176 169 312 318 321 318 305 306 307 300 304 310 306 304
90 89 92 91 88 92 94 102 113 110 111 107 83 66 78 95 119 137 114 85 11 1 50 348 64 70 19 71 132 175 176 153 143 172 219 236 278 353 20 119 118 101 110 194 302 327 295 276 271 184 189 323 29 52 17 358 340 19 55 340 326 8 13 79 98 293 287 6 328 320 336 84 146 164 181 317 332 334 323 306 301 302 303 309 313 309 307
82 80 81 79 78 80 81 86 91 98 113 108 92 106 120 99 97 116 101 82 345 349 49 319 82 84 24 83 130 169 109 112 183 149 181 226 231 355 152 151 156 140 123 160 294 352 24 89 59 70 95 70 66 57 62 65 31 24 108 358 344 36 346 356 16 310 310 343 330 317 332 117 129 134 92 356 349 337 324 317 312 306 303 308 313 314 316
78 78 77 75 73 72 70 74 82 95 113 112 117 143 156 141 123 101 79 84 42 342 71 358 51 98 189 122 111 107 110 135 253 184 135 224 150 107 165 150 163 233 117 105 98 97 111 114 99 80 78 79 77 73 77 70 53 44 144 181 145 112 46 44 30 308 309 328 324 308 283 51 13 100 83 14 351 335 322 318 318 317 315 315 316 317 319
77 77 77 76 76 74 72 74 77 83 100 116 128 143 159 154 128 105 85 97 79 322 73 39 9 35 157 122 113 143 144 144 231 282 308 293 123 132 169 158 349 32 125 125 144 149 128 109 95 83 79 83 86 74 65 60 45 21 307 208 127 63 56 102 27 292 287 317 331 334 360 21 87 135 78 8 342 327 320 315 318 326 325 320 320 321 322
76 75 74 73 73 73 72 73 73 78 93 108 114 126 144 141 112 89 91 103 99 318 76 78 336 36 76 106 114 103 121 77 88 263 280 278 247 221 183 190 2 134 146 146 153 161 134 98 93 89 82 86 90 71 56 44 21 2 1 7 66 63 70 142 290 306 290 322 360 354 318 340 114 145 18 354 343 338 332 320 319 329 328 322 322 321 322
74 73 70 68 67 66 66 67 66 70 83 96 99 113 132 134 102 101 115 102 95 251 161 114 142 114 100 121 107 74 86 278 187 242 241 206 283 267 178 119 132 145 151 150 151 186 175 111 113 118 108 109 154 115 91 63 17 20 28 19 33 90 104 336 332 37 350 316 308 263 273 292 106 124 358 359 345 339 331 312 310 318 325 328 326 323 323
73 71 68 65 62 59 59 60 61 65 70 67 84 102 108 94 90 116 120 107 114 164 239 172 156 150 132 133 235 135 58 327 302 265 52 155 265 275 87 105 149 151 155 157 160 193 215 187 227 202 171 215 232 208 166 151 92 42 36 32 49 65 61 357 334 13 36 292 294 296 298 307 106 73 356 354 328 319 317 303 297 313 342 335 331 327 325
70 69 66 64 60 57 57 58 59 63 64 60 77 90 86 76 84 98 100 100 116 123 64 303 152 138 127 135 245 196 57 337 274 292 315 213 248 28 95 123 158 156 159 182 132 125 59 175 206 219 232 222 216 246 211 165 135 122 123 78 65 60 50 46 15 348 320 301 309 317 305 304 75 350 334 338 329 322 316 296 285 337 344 335 331 327 324
67 66 65 63 61 57 56 57 60 62 60 57 73 83 80 75 82 93 92 84 85 93 70 286 190 150 108 117 183 190 107 135 155 249 295 310 297 294 124 136 168 182 192 231 42 78 62 89 160 246 250 197 176 288 252 183 5 210 178 78 61 57 18 357 15 339 301 296 292 266 253 265 19 338 332 340 335 323 314 296 307 336 335 331 328 324 321
65 65 64 63 62 59 55 53 54 59 62 62 69 76 76 71 68 86 98 95 88 104 93 315 200 172 339 74 140 104 123 163 275 213 258 302 299 287 290 141 177 204 211 235 340 72 89 140 190 243 236 150 122 306 266 150 325 311 277 315 24 69 342 341 343 315 299 285 285 278 253 253 322 331 341 345 333 322 321 318 321 326 326 324 323 320 317
62 61 61 62 63 62 59 54 49 49 52 50 58 69 67 63 69 86 95 88 62 99 123 309 315 110 3 326 130 95 135 199 286 283 340 313 150 107 307 245 199 221 213 176 125 102 115 253 206 183 243 190 191 293 68 80 48 88 342 306 322 17 284 247 276 306 303 263 290 300 258 177 4 344 345 352 343 330 325 318 317 321 321 319 319 317 315
60 59 58 59 60 59 57 55 48 45 47 45 62 75 65 54 57 79 99 111 102 85 78 20 31 108 69 335 80 218 234 115 242 206 28 331 41 93 292 250 175 265 265 135 80 144 186 233 149 177 233 210 73 193 127 82 32 126 275 276 160 39 322 303 276 297 300 260 284 315 297 36 26 356 340 349 347 322 313 315 317 319 318 317 318 316 316
60 60 58 58 60 59 58 56 49 47 55 59 80 83 72 66 71 85 114 122 115 100 110 94 87 93 82 60 65 51 283 115 96 263 240 290 353 10 294 290 88 231 223 98 275 204 174 177 149 200 224 116 88 236 177 146 204 184 264 244 187 161 217 315 285 181 333 294 240 290 299 321 0 352 324 322 324 316 314 317 316 317 319 319 318 315 316
59 59 58 58 60 60 60 60 55 54 62 66 79 87 85 82 84 92 108 103 90 84 119 116 96 84 75 59 53 52 55 135 177 212 187 246 280 23 297 276 150 206 200 80 298 238 141 152 150 171 206 154 137 161 98 217 247 356 217 221 190 171 205 283 274 203 226 265 262 275 293 306 325 324 312 313 314 315 318 316 312 315 320 320 318 317 319
57 57 57 57 59 59 60 63 60 58 62 62 69 86 97 99 95 99 103 95 86 87 106 106 93 77 60 32 23 30 35 46 151 181 144 338 299 210 227 262 356 283 183 66 310 299 164 170 123 130 197 167 121 125 154 234 244 166 175 199 212 195 188 194 265 266 266 257 256 273 294 305 311 311 308 312 315 320 323 318 316 318 319 319 320 320 323
56 56 55 55 57 55 55 60 61 62 66 64 67 86 99 103 101 101 101 97 95 96 88 82 73 51 14 349 360 4 5 15 14 206 179 181 288 315 287 287 336 304 304 77 68 77 108 127 74 283 221 181 142 150 194 243 216 159 153 202 267 188 179 214 258 284 306 290 271 291 310 314 313 314 319 325 327 329 330 325 321 321 319 319 321 324 328
56 57 56 56 57 58 58 60 62 64 67 65 68 84 94 95 94 99 97 96 114 124 95 69 14 3 333 323 347 350 350 3 5 315 196 201 224 264 317 334 319 283 9 62 100 116 71 95 135 182 196 197 202 204 233 266 192 169 174 237 288 133 168 241 267 266 269 276 286 306 312 303 294 301 320 332 332 330 330 327 323 321 321 323 326 330 332
52 55 57 58 61 64 65 64 64 66 68 71 76 84 87 84 80 84 94 97 99 96 95 112 355 15 27 12 3 359 3 8 11 17 7 229 223 234 268 307 4 113 86 62 57 97 83 94 123 155 159 181 255 229 166 104 122 159 206 208 114 129 177 242 279 275 265 276 302 324 323 306 294 312 326 330 330 329 326 324 323 322 323 326 329 330 329
51 55 60 65 68 72 76 77 77 74 73 75 77 78 78 74 66 64 86 103 95 57 91 130 235 318 82 51 22 16 18 17 17 27 26 358 200 215 245 261 253 110 84 57 57 96 92 101 155 87 144 206 76 86 66 88 107 139 221 164 145 218 251 268 288 284 285 308 330 335 327 314 315 324 326 326 326 324 321 320 321 321 323 327 328 325 324
55 57 62 69 74 78 82 84 84 81 76 74 72 70 68 63 57 54 54 59 96 109 108 131 151 158 147 46 17 16 26 31 32 40 43 45 99 193 232 238 228 185 64 68 173 112 76 330 147 110 125 234 132 102 346 249 151 223 223 173 169 236 264 276 283 278 287 306 321 326 314 301 305 314 318 318 318 318 318 317 317 320 325 328 325 321 322
56 57 59 61 62 62 63 71 82 83 75 71 70 68 64 58 53 55 58 68 94 104 99 95 118 113 112 1 9 9 16 30 36 46 56 60 79 104 104 104 120 97 92 106 115 100 95 55 107 116 48 283 200 157 150 178 210 248 186 164 175 211 221 248 274 280 288 300 313 318 306 297 302 308 308 308 311 314 315 316 319 325 327 326 322 320 321
54 56 57 56 54 51 43 31 7 273 283 60 67 63 60 50 43 49 60 72 91 102 106 113 112 60 315 325 6 3 1 3 10 30 50 58 63 60 55 69 88 89 95 116 59 89 132 100 68 253 2 20 150 171 150 168 226 237 160 167 189 207 217 255 275 278 287 299 308 309 300 294 296 300 301 305 312 316 317 318 323 327 325 321 319 318 317
52 55 56 56 55 54 51 48 46 40 323 222 74 50 75 24 12 26 43 58 74 93 101 96 89 14 340 264 350 2 2 351 335 345 11 39 45 37 30 44 69 55 36 96 88 103 149 110 85 130 38 37 66 141 143 164 224 221 182 189 208 218 236 275 283 277 287 299 305 301 292 288 294 301 305 312 317 320 320 319 322 324 321 317 315 314 314
53 55 57 58 58 57 58 58 58 63 72 79 81 81 86 29 333 4 36 53 68 96 98 79 84 39 349 292 326 358 356 342 340 357 358 22 23 8 12 35 51 57 68 103 143 93 84 95 93 121 94 36 52 105 147 193 217 206 196 217 235 237 254 287 294 285 288 299 308 305 300 299 307 311 309 310 313 316 316 317 319 320 318 315 314 314 317
53 56 58 62 62 61 64 65 64 69 75 77 77 73 64 51 26 17 50 64 63 72 81 79 102 89 354 259 309 4 358 340 339 5 7 20 2 339 339 42 42 51 54 59 131 100 80 161 123 101 99 56 73 119 198 220 201 174 210 247 246 245 262 283 287 282 286 295 297 295 294 298 302 304 303 305 309 312 315 316 316 316 316 316 317 322 327
48 51 55 61 61 58 61 63 66 73 76 73 68 61 57 54 48 43 56 97 74 64 60 63 109 126 347 318 177 13 7 358 307 352 355 6 2 346 276 3 11 66 41 24 67 110 57 355 107 135 162 88 66 232 232 205 184 207 264 259 243 253 270 278 277 272 283 293 287 278 280 287 294 300 302 304 307 310 311 313 314 316 319 322 325 330 332
40 41 44 48 45 44 49 55 61 68 67 62 57 54 56 57 53 50 53 67 66 57 45 40 65 95 9 356 283 351 5 9 184 315 317 338 7 20 112 315 359 80 29 359 30 114 38 20 28 211 181 112 260 245 219 181 213 273 288 282 278 280 275 276 281 281 289 296 291 283 285 288 291 295 296 296 301 306 309 314 323 329 332 331 330 331 331
33 33 38 41 42 50 57 52 52 57 55 47 47 49 54 62 60 56 58 60 59 71 129 62 57 91 26 331 278 330 356 4 182 272 302 297 1 25 48 9 15 82 32 11 55 79 28 14 294 283 347 228 242 222 147 152 269 289 298 291 286 282 273 279 291 294 293 292 286 282 285 286 285 288 292 295 305 315 321 327 334 337 334 329 327 327 325
32 29 25 25 50 51 46 40 41 46 37 29 38 53 51 60 67 55 53 52 50 54 71 94 96 95 13 274 272 333 348 346 280 341 338 281 317 347 25 43 359 326 19 29 38 25 20 22 359 272 228 235 246 188 139 184 263 279 290 290 286 283 282 287 294 297 296 293 289 289 298 300 298 303 312 316 321 328 331 331 332 330 326 321 321 320 319
29 31 33 62 77 57 26 14 19 17 7 6 36 69 38 30 45 44 31 25 30 38 50 71 96 86 272 254 284 340 353 347 319 356 5 249 306 328 11 79 37 309 327 347 342 326 349 33 39 299 263 279 308 242 222 236 255 258 266 280 285 285 288 291 296 302 306 308 312 318 322 320 319 320 322 321 321 323 324 323 323 322 319 317 316 316 316
22 32 45 55 70 97 304 334 342 342 344 354 27 61 19 14 30 31 353 354 15 17 24 53 99 182 235 297 316 358 25 22 332 349 10 358 333 339 334 346 38 14 351 18 43 359 321 353 31 327 284 285 289 237 234 245 251 245 249 261 269 277 285 288 287 289 291 294 300 306 307 306 308 310 311 311 313 315 316 317 318 319 317 316 316 314 313
30 48 51 52 71 97 53 357 341 327 336 8 29 54 32 21 38 46 347 26 37 355 346 56 113 237 284 331 294 340 34 30 351 336 353 318 299 39 350 322 18 7 322 322 37 16 333 311 333 325 299 268 249 243 243 254 254 251 254 261 268 275 279 280 282 284 283 285 289 290 288 288 291 294 297 301 305 309 311 312 314 315 314 313 313 313 311
31 50 66 93 118 101 41 16 13 25 52 31 31 45 38 10 9 20 42 45 22 293 271 74 35 302 338 71 247 281 22 33 57 114 355 300 325 67 344 305 354 16 268 263 329 46 68 64 286 283 271 249 246 250 271 280 272 265 263 267 273 277 278 279 284 283 281 284 288 287 285 286 288 289 293 298 302 304 304 305 308 311 310 310 310 310 310
71 87 97 101 96 66 26 23 25 31 52 61 41 33 15 355 8 20 39 53 351 276 234 122 304 284 277 258 245 249 353 17 33 92 74 315 347 75 352 309 8 27 254 250 358 47 46 312 283 272 257 249 249 259 280 280 279 281 279 275 276 275 274 277 282 282 280 283 285 284 285 287 289 292 296 300 303 303 302 303 305 308 309 309 309 308 308
82 95 106 96 48 25 22 24 24 30 49 50 39 18 343 350 25 28 328 294 261 278 279 274 290 296 305 338 247 226 271 355 16 84 110 315 347 47 44 19 22 34 261 28 58 53 336 253 248 252 255 256 258 267 275 277 280 284 284 283 282 280 277 274 275 280 284 286 285 285 286 287 289 294 300 304 305 305 306 308 311 313 313 312 309 309 311
80 54 63 66 27 18 15 353 6 49 60 37 67 112 352 337 333 187 276 297 233 193 312 338 354 337 322 2 41 343 276 352 59 89 17 326 15 51 46 315 279 319 3 32 39 344 261 244 243 257 273 280 273 269 274 278 280 281 285 288 288 284 282 280 278 279 284 289 290 290 290 289 292 298 305 308 309 307 307 310 315 318 317 313 310 311 316
294 359 31 36 357 354 20 323 344 34 68 204 176 163 173 243 222 203 221 265 162 161 342 27 78 315 278 292 66 75 304 339 15 6 315 358 9 4 241 239 298 36 46 27 342 313 281 263 256 259 264 267 268 272 279 285 287 289 292 292 288 281 277 277 276 277 281 287 290 292 293 293 297 302 306 310 312 311 309 311 315 317 316 313 310 314 320
97 62 72 88 335 332 74 89 356 17 161 193 192 177 180 193 195 194 211 283 114 126 155 126 103 88 305 310 18 73 18 7 353 273 96 68 357 265 243 250 19 37 35 354 315 280 263 265 267 259 257 265 276 283 289 293 296 298 293 286 285 284 279 276 278 281 284 288 292 293 294 297 300 304 306 309 312 314 314 315 317 318 316 314 314 318 323
94 64 82 106 355 339 50 150 231 248 202 207 206 194 199 257 290 247 224 195 127 123 128 114 69 110 210 305 11 357 4 31 20 277 315 96 237 274 6 30 340 221 64 302 272 253 253 275 281 264 258 269 283 289 291 296 300 298 290 283 286 287 284 281 283 286 290 294 295 296 298 303 308 311 312 312 313 316 318 320 321 320 319 318 319 321 324
109 66 76 115 195 238 199 192 241 261 183 157 196 261 101 47 322 275 201 156 129 122 135 137 101 119 160 41 37 297 315 14 74 248 315 73 330 336 10 6 312 268 204 211 234 252 279 291 285 278 280 285 287 285 285 293 298 297 293 290 291 290 287 286 287 291 296 298 297 298 302 308 313 317 318 316 315 318 322 323 322 322 322 322 322 323 325
82 87 85 95 141 181 170 41 327 301 281 121 73 329 64 98 279 248 180 145 125 132 172 159 129 129 261 342 46 46 341 326 249 301 5 30 18 238 112 318 305 300 248 214 227 258 288 293 294 294 294 291 285 277 281 292 299 301 301 301 300 299 295 293 292 295 299 300 298 300 306 312 316 320 321 319 318 320 322 323 323 323 325 326 324 323 324
61 73 79 68 64 223 199 62 6 316 298 294 287 211 174 213 263 221 175 155 130 81 101 98 89 123 158 10 32 27 312 276 141 77 358 288 190 152 162 242 253 248 238 245 255 263 279 295 304 299 292 290 287 285 292 300 306 309 309 310 310 307 302 298 297 299 302 303 303 304 310 317 320 321 319 317 316 318 321 323 324 326 328 329 327 325 325
45 62 60 48 71 189 188 149 143 255 270 272 252 196 178 199 254 195 170 158 126 67 86 135 47 67 57 28 18 342 271 234 96 88 262 236 170 142 192 241 243 230 237 273 284 281 282 290 289 286 290 295 295 294 298 305 311 314 315 317 316 313 309 306 304 303 305 307 308 310 315 321 323 322 321 320 320 321 322 325 328 329 330 330 328 327 326
52 55 16 352 29 102 88 43 37 37 298 278 253 199 192 254 199 159 155 148 119 92 171 175 85 68 46 301 243 115 6 3 3 297 259 233 191 176 200 225 246 261 269 279 290 297 294 290 286 281 278 282 291 297 303 308 313 317 321 323 321 318 315 312 310 310 311 313 314 318 323 326 328 328 328 328 328 328 327 327 328 329 329 329 328 327 326